Location: Unspecified
(35.6961°N, 0.0000°E)
Time: 17:16:16
(UTC+00:00)

Vanguard 2 Rocket - Pass Details

Date: 30 May 2019
Orbit: 554 x 3326 km, 32.9° (Epoch: 16 June)

Event Time Altitude Azimuth Distance (km) Brightness Sun altitude
Rises 07:05:51 0° 272° (W) 7,256 10.9 26.0°
Reaches altitude 10° 07:11:02 10° 272° (W) 6,081 10.6 27.0°
Maximum altitude 07:29:11 77° 191° (S) 2,353 9.4 30.7°
Drops below altitude 10° 07:39:48 10° 107° (ESE) 3,778 11.3 32.8°
Sets 07:42:15 0° 105° (ESE) 4,473 11.4 33.3°
